Regional Weather Roundup
Issued by NWS Newport/Morehead, NC

Current Version | Previous Version | Graphics & Text | Print | Product List | Glossary On
Versions: 1 2 3 4 5 6 7 8 9 10 11 12 13 14 15 16 17 18 19 20 21 22 23 24 25 26 27 28 29 30 31 32 33 34 35 36 37 38 39 40 41 42 43 44 45 46 47 48 49 50
000 ASUS42 KMHX 281325 RWRMHX WEATHER ROUNDUP FOR EASTERN NORTH CAROLINA NATIONAL WEATHER SERVICE NEWPORT/MOREHEAD CITY NC 900 AM EDT TUE JUL 28 2015 NOTE: "FAIR" INDICATES FEW OR NO CLOUDS BELOW 12,000 FEET WITH NO SIGNIFICANT WEATHER AND/OR OBSTRUCTIONS TO VISIBILITY NCZ015>017-031-032-045>047-102-103-281400- NORTH COAST CITY SKY/WX TMP DP RH WIND PRES REMARKS EDENTON N/A 80 71 71 SE5 30.02F ELIZABETH CITY MOSUNNY 80 73 79 E5 30.03S KITTY HAWK SUNNY 83 70 66 E8 30.02F MANTEO SUNNY 81 69 66 E7 30.03F $$ NCZ045>047-081-094-103-104-281400- CENTRAL COAST CITY SKY/WX TMP DP RH WIND PRES REMARKS FRISCO SUNNY 82 69 64 E8 30.02S SWANQUARTER N/A 82 N/A N/A NE2 30.00S $$ NCZ095-097-098-100-101-281400- SOUTHERN COAST CITY SKY/WX TMP DP RH WIND PRES REMARKS BEAUFORT SUNNY 82 71 69 E9 30.01R CEDAR ISLAND N/A 82 N/A N/A NE10 30.06S JACKSONVILLE SUNNY 81 71 71 E9 30.00S PINEY ISLAND SUNNY N/A N/A N/A E9 30.01S WILMINGTON SUNNY 81 73 76 NE10 30.00S $$ NCZ011>013-027>030-043-044-078>080-089-090>093-098-281400- COASTAL PLAIN CITY SKY/WX TMP DP RH WIND PRES REMARKS AHOSKIE SUNNY 78 72 82 CALM 30.03R CLINTON SUNNY 79 73 82 E6 30.02S ELIZABETHTOWN SUNNY 80 73 79 E3 30.01S GOLDSBORO SUNNY 80 73 78 SE5 30.00F GREENVILLE SUNNY 81 73 78 SE3 30.03F HAVELOCK MOSUNNY 82 71 69 E9 30.02S KENANSVILLE SUNNY 79 71 75 E3 30.02F KINSTON SUNNY 81 72 74 E3 30.03F NEW BERN SUNNY 81 71 71 E6 30.02F RICHLANDS SUNNY 81 70 69 E9 30.02R ROCKY MOUNT SUNNY 80 73 79 S6 30.03S WASHINGTON SUNNY 79 73 81 E3 30.02F WHITEVILLE SUNNY 79 73 83 E3 30.00S $$ AMZ130-135-150-152-154-156-158-170-250-252-270-ANZ085-086-088-633-658-670-281400- MARINE OBSERVATIONS STATION/POSITION TIME TEMP WIND PRES WAVE SWELL AIR SEA DIR/SP/G HT/PER HT/PER (UTC) (F) (DEG/KT/KT) (MB) (FT/S) (FT/S) CHESAPEAKE LIGHT 1300 80 190/ 5/ 6 1017.4 64 E VA BEACH 1250 80 80 170/ 2/ 4 1016.9 2/11 2/11 DUCK 1300 80 66 120/ 8/ 8 1015.9 2 E DUCK 1211 79 N/A 2/11 2/11 OREGON INLET 1300 80 81 60/ 7/ 8 1016.7 13E OREGON INLT 1300 79 N/A 2/11 2/11 HATTERAS CG 1300 82 82 90/ 9/ 11 1016.2 DIAMOND BUOY NOT AVBL CAPE LOOKOUT 1300 81 70/ 13/ 15 1016.0 BEAUFORT LAB 1300 82 81 80/ 7/ 13 1015.6 30 SE NEW RVR IN NOT AVBL 27 SE WRIGHTSVLE 1300 78 81 90/ 16/ 19 N/A 5 SE WRIGHTSVLE NOT AVBL 225 S CAPE HAT 1250 78 82 290/ 14/ 23 1016.0 6/ 6 5/ 6 41 SE CHARLESTON 1250 83 84 40/ 10/ 12 1014.3 3/ 7 3/ 7 $$

USA.gov is the U.S. government's official web portal to all federal, state and local government web resources and services.